Location: St. Louis
(38.6270°N, 90.1994°W)
Time: 04:15:30
(UTC-05:00)

RS-15 - Pass Details

Date: 31 January 2022
Orbit: 1881 x 2163 km, 64.8° (Epoch: 20 May)

Event Time Altitude Azimuth Distance (km) Brightness Sun altitude
Rises 20:08:04 0° 277° (W) 5,504 11.5 -32.6°
Reaches altitude 10° 20:12:42 10° 292° (WNW) 4,551 10.7 -33.5°
Maximum altitude 20:21:27 22° 340° (NNW) 3,698 9.6 -35.2°
Drops below altitude 10° 20:30:29 10° 28° (NNE) 4,678 9.8 -37.0°
Enters shadow 20:30:39 10° 29° (NNE) 4,711 9.8 -37.0°
